| time (UTC) | temp F | wind direction | speed MPH | gust MPH | rain 1hr in | rain 24hr in | rain mn in | humidity % | barometer mb |
| 20260507045041 | 59 | 106 | 2.0 | 7.0 | 0.00 | 0.00 | 0.00 | 81 | 1009.9 |
| 20260507044820 | 59 | 137 | 2.0 | 7.0 | 0.00 | 0.00 | 0.00 | 81 | 1009.8 |
| 20260507044041 | 59 | 84 | 2.0 | 8.0 | 0.00 | 0.00 | 0.00 | 81 | 1009.8 |
| 20260507043818 | 59 | 78 | 5.0 | 8.0 | 0.00 | 0.00 | 0.00 | 81 | 1009.7 |
| 20260507043325 | 59 | 342 | 2.0 | 3.0 | 0.00 | 0.00 | 0.00 | 81 | 1009.8 |
| 20260507042542 | 59 | 342 | 0.0 | 6.0 | 0.00 | 0.00 | 0.00 | 81 | 1009.7 |
| 20260507042047 | 59 | 92 | 2.0 | 9.0 | 0.00 | 0.00 | 0.00 | 81 | 1009.7 |
| 20260507041544 | 59 | 126 | 2.0 | 10.0 | 0.00 | 0.00 | 0.00 | 81 | 1009.8 |
| 20260507041047 | 59 | 96 | 6.0 | 10.0 | 0.00 | 0.00 | 0.00 | 81 | 1009.6 |
| 20260507040544 | 59 | 73 | 4.0 | 8.0 | 0.00 | 0.00 | 0.00 | 81 | 1009.6 |
| 20260507040340 | 59 | 89 | 1.0 | 6.0 | 0.00 | 0.00 | 0.00 | 81 | 1009.5 |
| 20260507035544 | 59 | 157 | 2.0 | 6.0 | 0.00 | 0.00 | 0.00 | 80 | 1009.5 |
| 20260507035328 | 59 | 138 | 2.0 | 6.0 | 0.00 | 0.00 | 0.00 | 80 | 1009.2 |
| 20260507034544 | 59 | 83 | 1.0 | 4.0 | 0.00 | 0.00 | 0.00 | 80 | 1009.3 |
| 20260507034047 | 59 | 112 | 3.0 | 9.0 | 0.00 | 0.00 | 0.00 | 80 | 1009.1 |
| 20260507033545 | 59 | 270 | 5.0 | 9.0 | 0.00 | 0.00 | 0.00 | 80 | 1009.0 |
| 20260507033047 | 59 | 33 | 0.0 | 7.0 | 0.00 | 0.00 | 0.00 | 80 | 1009.0 |
| 20260507032544 | 59 | 119 | 0.0 | 7.0 | 0.00 | 0.00 | 0.00 | 80 | 1008.7 |
| 20260507032330 | 59 | 142 | 1.0 | 10.0 | 0.00 | 0.00 | 0.00 | 80 | 1008.8 |
| 20260507031544 | 60 | 60 | 3.0 | 13.0 | 0.00 | 0.00 | 0.00 | 79 | 1008.8 |
| 20260507031047 | 60 | 118 | 3.0 | 13.0 | 0.00 | 0.00 | 0.00 | 79 | 1008.7 |
| 20260507030544 | 60 | 63 | 10.0 | 11.0 | 0.00 | 0.00 | 0.00 | 79 | 1008.6 |
| 20260507030059 | 60 | 108 | 5.0 | 7.0 | 0.00 | 0.00 | 0.00 | 79 | 1008.5 |
| 20260507025544 | 60 | 112 | 2.0 | 7.0 | 0.00 | 0.00 | 0.00 | 79 | 1008.7 |
| 20260507025323 | 60 | 21 | 0.0 | 7.0 | 0.00 | 0.00 | 0.00 | 78 | 1008.6 |
| 20260507024544 | 60 | 54 | 2.0 | 7.0 | 0.00 | 0.00 | 0.00 | 78 | 1008.6 |
| 20260507024048 | 60 | 125 | 1.0 | 7.0 | 0.00 | 0.00 | 0.00 | 79 | 1008.6 |
| 20260507023545 | 60 | 51 | 1.0 | 10.0 | 0.00 | 0.00 | 0.00 | 78 | 1008.7 |
| 20260507023047 | 60 | 147 | 0.0 | 10.0 | 0.00 | 0.00 | 0.00 | 78 | 1008.5 |
| 20260507022819 | 60 | 209 | 3.0 | 8.0 | 0.00 | 0.00 | 0.00 | 78 | 1008.4 |
| 20260507022100 | 60 | 58 | 3.0 | 10.0 | 0.00 | 0.00 | 0.00 | 77 | 1008.4 |
| 20260507021545 | 60 | 200 | 1.0 | 10.0 | 0.00 | 0.00 | 0.00 | 77 | 1008.3 |
| 20260507021047 | 60 | 123 | 1.0 | 13.0 | 0.00 | 0.00 | 0.00 | 77 | 1008.4 |
| 20260507020544 | 61 | 15 | 6.0 | 14.0 | 0.00 | 0.00 | 0.00 | 77 | 1008.4 |
| 20260507020338 | 61 | 93 | 1.0 | 15.0 | 0.00 | 0.00 | 0.00 | 77 | 1008.2 |
| 20260507015545 | 61 | 129 | 2.0 | 19.0 | 0.00 | 0.00 | 0.00 | 77 | 1008.1 |
| 20260507015047 | 61 | 75 | 4.0 | 19.0 | 0.00 | 0.00 | 0.00 | 77 | 1008.2 |
| 20260507014544 | 61 | 99 | 9.0 | 17.0 | 0.00 | 0.00 | 0.00 | 76 | 1008.2 |
| 20260507014047 | 61 | 24 | 5.0 | 17.0 | 0.00 | 0.00 | 0.00 | 76 | 1007.7 |
| 20260507013544 | 61 | 79 | 2.0 | 13.0 | 0.00 | 0.00 | 0.00 | 76 | 1008.1 |
| 20260507013048 | 61 | 153 | 2.0 | 16.0 | 0.00 | 0.00 | 0.00 | 76 | 1008.0 |
| 20260507012544 | 61 | 93 | 4.0 | 16.0 | 0.00 | 0.00 | 0.00 | 76 | 1008.0 |
| 20260507012047 | 61 | 58 | 4.0 | 22.0 | 0.00 | 0.00 | 0.00 | 76 | 1007.9 |
| 20260507011544 | 61 | 68 | 1.0 | 22.0 | 0.00 | 0.00 | 0.00 | 76 | 1007.9 |
| 20260507011100 | 61 | 98 | 4.0 | 15.0 | 0.00 | 0.00 | 0.00 | 76 | 1008.1 |
| 20260507010545 | 61 | 112 | 6.0 | 17.0 | 0.00 | 0.00 | 0.00 | 76 | 1007.9 |
| 20260507010100 | 61 | 80 | 4.0 | 17.0 | 0.00 | 0.00 | 0.00 | 76 | 1007.7 |
| 20260507005544 | 61 | 88 | 4.0 | 17.0 | 0.00 | 0.00 | 0.00 | 76 | 1008.0 |
| 20260507005328 | 61 | 111 | 5.0 | 17.0 | 0.00 | 0.00 | 0.00 | 75 | 1007.6 |
| 20260507004544 | 61 | 99 | 6.0 | 17.0 | 0.00 | 0.00 | 0.00 | 75 | 1007.6 |
| 20260507004047 | 61 | 59 | 10.0 | 15.0 | 0.00 | 0.00 | 0.00 | 75 | 1007.7 |
| 20260507003544 | 61 | 100 | 3.0 | 10.0 | 0.00 | 0.00 | 0.00 | 75 | 1007.4 |
| 20260507003046 | 61 | 70 | 9.0 | 10.0 | 0.00 | 0.00 | 0.00 | 75 | 1007.5 |
| 20260507002822 | 61 | 176 | 1.0 | 7.0 | 0.00 | 0.00 | 0.00 | 75 | 1007.7 |
| 20260507002047 | 61 | 133 | 1.0 | 17.0 | 0.00 | 0.00 | 0.00 | 76 | 1007.7 |
| 20260507001544 | 62 | 182 | 2.0 | 17.0 | 0.00 | 0.00 | 0.00 | 74 | 1007.7 |
| 20260507001047 | 62 | 138 | 1.0 | 14.0 | 0.00 | 0.00 | 0.00 | 74 | 1007.9 |
| 20260507000544 | 62 | 50 | 9.0 | 14.0 | 0.00 | 0.00 | 0.00 | 74 | 1007.6 |
| 20260507000101 | 62 | 112 | 3.0 | 14.0 | 0.00 | 0.00 | 0.00 | 74 | 1007.9 |
| 20260506235544 | 62 | 291 | 3.0 | 13.0 | 0.00 | 0.00 | 0.00 | 73 | 1007.9 |
| 20260506235048 | 62 | 95 | 5.0 | 13.0 | 0.00 | 0.00 | 0.00 | 74 | 1007.5 |
| 20260506234545 | 62 | 153 | 3.0 | 13.0 | 0.00 | 0.00 | 0.00 | 73 | 1007.7 |
| 20260506234058 | 62 | 42 | 4.0 | 11.0 | 0.00 | 0.00 | 0.00 | 73 | 1007.9 |
| 20260506233544 | 62 | 108 | 4.0 | 7.0 | 0.00 | 0.00 | 0.00 | 73 | 1007.3 |
| 20260506233048 | 62 | 76 | 3.0 | 10.0 | 0.00 | 0.00 | 0.00 | 73 | 1007.6 |
| 20260506232544 | 62 | 26 | 4.0 | 16.0 | 0.00 | 0.00 | 0.00 | 73 | 1007.7 |
| 20260506232048 | 63 | 85 | 6.0 | 16.0 | 0.00 | 0.00 | 0.00 | 72 | 1007.9 |
| 20260506231545 | 62 | 86 | 1.0 | 11.0 | 0.00 | 0.00 | 0.00 | 73 | 1007.9 |
| 20260506231121 | 63 | 15 | 4.0 | 15.0 | 0.00 | 0.00 | 0.00 | 72 | 1007.7 |
| 20260506231107 | 62 | 44 | 2.0 | 6.0 | 0.00 | 0.00 | 0.00 | 73 | 1007.9 |
| 20260506230100 | 63 | 4 | 5.0 | 15.0 | 0.00 | 0.00 | 0.00 | 72 | 1007.7 |
| 20260506225544 | 63 | 42 | 1.0 | 13.0 | 0.00 | 0.00 | 0.00 | 72 | 1007.6 |
| 20260506225048 | 63 | 143 | 4.0 | 14.0 | 0.00 | 0.00 | 0.00 | 72 | 1007.5 |
| 20260506224544 | 63 | 67 | 1.0 | 14.0 | 0.00 | 0.00 | 0.00 | 72 | 1007.6 |
| 20260506224048 | 63 | 295 | 4.0 | 10.0 | 0.00 | 0.00 | 0.00 | 71 | 1007.7 |
| 20260506223819 | 63 | 16 | 5.0 | 10.0 | 0.00 | 0.00 | 0.00 | 70 | 1007.6 |
| 20260506223047 | 63 | 69 | 2.0 | 10.0 | 0.00 | 0.00 | 0.00 | 71 | 1007.3 |
| 20260506222817 | 64 | 17 | 2.0 | 9.0 | 0.00 | 0.00 | 0.00 | 71 | 1007.4 |
| 20260506222047 | 63 | 220 | 4.0 | 7.0 | 0.00 | 0.00 | 0.00 | 71 | 1007.4 |
| 20260506221816 | 63 | 285 | 0.0 | 18.0 | 0.00 | 0.00 | 0.00 | 71 | 1007.5 |
| 20260506221047 | 64 | 250 | 3.0 | 18.0 | 0.00 | 0.00 | 0.00 | 70 | 1007.5 |
| 20260506220544 | 64 | 62 | 2.0 | 16.0 | 0.00 | 0.00 | 0.00 | 70 | 1007.5 |
| 20260506220047 | 64 | 154 | 5.0 | 10.0 | 0.00 | 0.00 | 0.00 | 70 | 1007.5 |
| 20260506215544 | 64 | 13 | 2.0 | 10.0 | 0.00 | 0.00 | 0.00 | 70 | 1007.3 |
| 20260506215047 | 64 | 67 | 3.0 | 10.0 | 0.00 | 0.00 | 0.00 | 70 | 1007.3 |
| 20260506214832 | 64 | 205 | 6.0 | 8.0 | 0.00 | 0.00 | 0.00 | 69 | 1007.3 |
| 20260506214322 | 64 | 272 | 3.0 | 13.0 | 0.00 | 0.00 | 0.00 | 69 | 1007.3 |
| 20260506213828 | 64 | 73 | 2.0 | 13.0 | 0.00 | 0.00 | 0.00 | 69 | 1007.5 |
| 20260506213047 | 64 | 127 | 1.0 | 14.0 | 0.00 | 0.00 | 0.00 | 69 | 1007.3 |
| 20260506212544 | 65 | 89 | 2.0 | 14.0 | 0.00 | 0.00 | 0.00 | 68 | 1007.5 |
| 20260506212048 | 65 | 88 | 1.0 | 17.0 | 0.00 | 0.00 | 0.00 | 68 | 1007.4 |
| 20260506211544 | 65 | 77 | 5.0 | 17.0 | 0.00 | 0.00 | 0.00 | 68 | 1007.4 |
| 20260506211047 | 65 | 89 | 2.0 | 16.0 | 0.00 | 0.00 | 0.00 | 68 | 1007.3 |
| 20260506210544 | 65 | 251 | 3.0 | 13.0 | 0.00 | 0.00 | 0.00 | 67 | 1007.2 |
| 20260506210100 | 65 | 18 | 4.0 | 15.0 | 0.00 | 0.00 | 0.00 | 67 | 1007.1 |
| 20260506205544 | 65 | 99 | 5.0 | 21.0 | 0.00 | 0.00 | 0.00 | 66 | 1007.0 |
| 20260506205326 | 66 | 15 | 6.0 | 21.0 | 0.00 | 0.00 | 0.00 | 66 | 1007.2 |
| 20260506204543 | 65 | 83 | 9.0 | 11.0 | 0.00 | 0.00 | 0.00 | 66 | 1007.1 |
| 20260506204047 | 66 | 101 | 3.0 | 9.0 | 0.00 | 0.00 | 0.00 | 66 | 1007.1 |
| 20260506203547 | 65 | 331 | 6.0 | 9.0 | 0.00 | 0.00 | 0.00 | 66 | 1006.9 |
| 20260506203047 | 66 | 28 | 3.0 | 9.0 | 0.00 | 0.00 | 0.00 | 66 | 1006.8 |
| 20260506202544 | 66 | 70 | 3.0 | 13.0 | 0.00 | 0.00 | 0.00 | 65 | 1006.9 |
| 20260506202046 | 66 | 168 | 8.0 | 13.0 | 0.00 | 0.00 | 0.00 | 65 | 1006.8 |
| 20260506201544 | 66 | 17 | 4.0 | 15.0 | 0.00 | 0.00 | 0.00 | 65 | 1006.7 |
| 20260506201047 | 66 | 88 | 3.0 | 15.0 | 0.00 | 0.00 | 0.00 | 64 | 1006.8 |
| 20260506200545 | 66 | 84 | 7.0 | 10.0 | 0.00 | 0.00 | 0.00 | 64 | 1006.7 |
| 20260506195544 | 67 | 96 | 7.0 | 16.0 | 0.00 | 0.00 | 0.00 | 63 | 1006.7 |
| 20260506195046 | 67 | 101 | 5.0 | 10.0 | 0.00 | 0.00 | 0.00 | 63 | 1006.7 |
| 20260506194544 | 67 | 53 | 2.0 | 10.0 | 0.00 | 0.00 | 0.00 | 63 | 1006.7 |
| 20260506194047 | 66 | 69 | 2.0 | 10.0 | 0.00 | 0.00 | 0.00 | 63 | 1006.8 |
| 20260506193544 | 66 | 75 | 1.0 | 11.0 | 0.00 | 0.00 | 0.00 | 64 | 1006.7 |
| 20260506193047 | 67 | 271 | 0.0 | 17.0 | 0.00 | 0.00 | 0.00 | 63 | 1006.6 |
| 20260506192827 | 67 | 83 | 3.0 | 17.0 | 0.00 | 0.00 | 0.00 | 62 | 1006.7 |
| 20260506192047 | 67 | 134 | 4.0 | 8.0 | 0.00 | 0.00 | 0.00 | 62 | 1006.9 |
| 20260506191821 | 67 | 126 | 3.0 | 10.0 | 0.00 | 0.00 | 0.00 | 61 | 1006.9 |
| 20260506191047 | 67 | 75 | 7.0 | 10.0 | 0.00 | 0.00 | 0.00 | 61 | 1006.7 |
| 20260506190545 | 67 | 104 | 0.0 | 21.0 | 0.00 | 0.00 | 0.00 | 62 | 1006.7 |
| 20260506190100 | 68 | 59 | 5.0 | 21.0 | 0.00 | 0.00 | 0.00 | 61 | 1006.8 |
| 20260506185546 | 68 | 144 | 5.0 | 10.0 | 0.00 | 0.00 | 0.00 | 60 | 1006.7 |
| 20260506185047 | 68 | 40 | 4.0 | 13.0 | 0.00 | 0.00 | 0.00 | 60 | 1006.7 |
| 20260506184544 | 68 | 91 | 7.0 | 13.0 | 0.00 | 0.00 | 0.00 | 60 | 1006.8 |
| 20260506184047 | 68 | 151 | 0.0 | 11.0 | 0.00 | 0.00 | 0.00 | 61 | 1006.5 |
| 20260506183544 | 69 | 37 | 1.0 | 11.0 | 0.00 | 0.00 | 0.00 | 60 | 1006.4 |
| 20260506183047 | 69 | 49 | 3.0 | 11.0 | 0.00 | 0.00 | 0.00 | 60 | 1006.2 |
| 20260506182544 | 68 | 124 | 5.0 | 8.0 | 0.00 | 0.00 | 0.00 | 60 | 1006.1 |
| 20260506182037 | 69 | 51 | 4.0 | 8.0 | 0.00 | 0.00 | 0.00 | 59 | 1006.1 |
| 20260506181810 | 69 | 95 | 3.0 | 11.0 | 0.00 | 0.00 | 0.00 | 60 | 1006.3 |
| 20260506181023 | 69 | 120 | 4.0 | 13.0 | 0.00 | 0.00 | 0.00 | 59 | 1006.1 |
| 20260506180521 | 69 | 74 | 5.0 | 13.0 | 0.00 | 0.00 | 0.00 | 59 | 1006.1 |
| 20260506180017 | 69 | 91 | 1.0 | 10.0 | 0.00 | 0.00 | 0.00 | 58 | 1006.3 |
| 20260506175517 | 69 | 106 | 2.0 | 10.0 | 0.00 | 0.00 | 0.00 | 59 | 1006.0 |
| 20260506175014 | 69 | 79 | 3.0 | 13.0 | 0.00 | 0.00 | 0.00 | 58 | 1006.1 |
| 20260506174506 | 69 | 46 | 3.0 | 13.0 | 0.00 | 0.00 | 0.00 | 58 | 1006.1 |
| 20260506174005 | 70 | 128 | 6.0 | 15.0 | 0.00 | 0.00 | 0.00 | 58 | 1006.3 |
| 20260506173503 | 70 | 97 | 8.0 | 15.0 | 0.00 | 0.00 | 0.00 | 57 | 1006.2 |
| 20260506172953 | 70 | 49 | 7.0 | 14.0 | 0.00 | 0.00 | 0.00 | 57 | 1006.3 |
| 20260506172454 | 70 | 79 | 4.0 | 14.0 | 0.00 | 0.00 | 0.00 | 57 | 1006.2 |
| 20260506171953 | 70 | 66 | 0.0 | 10.0 | 0.00 | 0.00 | 0.00 | 59 | 1006.2 |
| 20260506171454 | 70 | 107 | 1.0 | 11.0 | 0.00 | 0.00 | 0.00 | 58 | 1006.6 |
| 20260506170954 | 70 | 69 | 4.0 | 17.0 | 0.00 | 0.00 | 0.00 | 58 | 1006.2 |
| 20260506170506 | 71 | 89 | 4.0 | 17.0 | 0.00 | 0.00 | 0.00 | 58 | 1006.4 |
| 20260506165953 | 71 | 124 | 3.0 | 19.0 | 0.00 | 0.00 | 0.00 | 57 | 1006.4 |
| 20260506165453 | 71 | 28 | 4.0 | 19.0 | 0.00 | 0.00 | 0.00 | 58 | 1006.5 |
| 20260506164954 | 71 | 157 | 8.0 | 13.0 | 0.00 | 0.00 | 0.00 | 58 | 1006.5 |
| 20260506164453 | 71 | 78 | 2.0 | 16.0 | 0.00 | 0.00 | 0.00 | 58 | 1006.5 |
| 20260506163954 | 71 | 93 | 2.0 | 23.0 | 0.00 | 0.00 | 0.00 | 58 | 1006.5 |
| 20260506163454 | 71 | 71 | 3.0 | 23.0 | 0.00 | 0.00 | 0.00 | 58 | 1006.4 |
| 20260506162954 | 71 | 1 | 5.0 | 14.0 | 0.00 | 0.00 | 0.00 | 58 | 1006.7 |
| 20260506162731 | 71 | 126 | 3.0 | 14.0 | 0.00 | 0.00 | 0.00 | 58 | 1006.5 |
| 20260506161953 | 71 | 39 | 9.0 | 14.0 | 0.00 | 0.00 | 0.00 | 57 | 1006.8 |
| 20260506161453 | 72 | 113 | 4.0 | 17.0 | 0.00 | 0.00 | 0.00 | 58 | 1006.7 |
| 20260506161231 | 71 | 109 | 1.0 | 17.0 | 0.00 | 0.00 | 0.00 | 57 | 1006.9 |
| 20260506160454 | 71 | 104 | 6.0 | 15.0 | 0.00 | 0.00 | 0.00 | 57 | 1006.9 |
| 20260506160305 | 71 | 85 | 3.0 | 9.0 | 0.00 | 0.00 | 0.00 | 57 | 1007.1 |
| 20260506155453 | 71 | 52 | 2.0 | 8.0 | 0.00 | 0.00 | 0.00 | 57 | 1007.2 |
| 20260506154952 | 71 | 228 | 1.0 | 8.0 | 0.00 | 0.00 | 0.00 | 57 | 1007.0 |
| 20260506154453 | 71 | 101 | 7.0 | 11.0 | 0.00 | 0.00 | 0.00 | 57 | 1007.1 |
| 20260506154233 | 71 | 148 | 4.0 | 11.0 | 0.00 | 0.00 | 0.00 | 57 | 1007.3 |
| 20260506153454 | 71 | 42 | 3.0 | 13.0 | 0.00 | 0.00 | 0.00 | 57 | 1007.3 |
| 20260506152954 | 71 | 48 | 7.0 | 13.0 | 0.00 | 0.00 | 0.00 | 57 | 1007.4 |
| 20260506152454 | 71 | 43 | 6.0 | 13.0 | 0.00 | 0.00 | 0.00 | 57 | 1007.3 |
| 20260506151952 | 71 | 75 | 6.0 | 13.0 | 0.00 | 0.00 | 0.00 | 57 | 1007.4 |
| 20260506151454 | 71 | 61 | 4.0 | 16.0 | 0.00 | 0.00 | 0.00 | 57 | 1007.4 |
| 20260506151008 | 71 | 18 | 3.0 | 9.0 | 0.00 | 0.00 | 0.00 | 57 | 1007.5 |
| 20260506150959 | 71 | 92 | 3.0 | 16.0 | 0.00 | 0.00 | 0.00 | 57 | 1007.4 |
| 20260506150239 | 72 | 120 | 6.0 | 9.0 | 0.00 | 0.00 | 0.00 | 57 | 1007.5 |
| 20260506145454 | 73 | 130 | 0.0 | 10.0 | 0.00 | 0.00 | 0.00 | 57 | 1007.7 |
| 20260506144954 | 73 | 60 | 0.0 | 10.0 | 0.00 | 0.00 | 0.00 | 57 | 1008.0 |
| 20260506144730 | 73 | 351 | 1.0 | 17.0 | 0.00 | 0.00 | 0.00 | 56 | 1007.7 |
| 20260506143952 | 71 | 170 | 1.0 | 18.0 | 0.00 | 0.00 | 0.00 | 56 | 1007.9 |
| 20260506143453 | 71 | 219 | 4.0 | 18.0 | 0.00 | 0.00 | 0.00 | 57 | 1007.9 |
| 20260506142951 | 71 | 91 | 5.0 | 14.0 | 0.00 | 0.00 | 0.00 | 57 | 1008.1 |
| 20260506142452 | 71 | 140 | 4.0 | 14.0 | 0.00 | 0.00 | 0.00 | 58 | 1007.9 |
| 20260506141951 | 71 | 75 | 9.0 | 15.0 | 0.00 | 0.00 | 0.00 | 57 | 1007.9 |
| 20260506141450 | 71 | 285 | 0.0 | 18.0 | 0.00 | 0.00 | 0.00 | 58 | 1007.9 |
| 20260506140951 | 72 | 75 | 16.0 | 18.0 | 0.00 | 0.00 | 0.00 | 57 | 1008.1 |
| 20260506140535 | 72 | 133 | 2.0 | 16.0 | 0.00 | 0.00 | 0.00 | 57 | 1008.2 |
| 20260506140522 | 72 | 103 | 15.0 | 17.0 | 0.00 | 0.00 | 0.00 | 56 | 1008.2 |
| 20260506135451 | 71 | 108 | 4.0 | 15.0 | 0.00 | 0.00 | 0.00 | 59 | 1008.3 |
| 20260506134952 | 71 | 132 | 4.0 | 15.0 | 0.00 | 0.00 | 0.00 | 58 | 1008.3 |
| 20260506134451 | 71 | 53 | 5.0 | 17.0 | 0.00 | 0.00 | 0.00 | 58 | 1008.3 |
| 20260506133952 | 71 | 255 | 4.0 | 17.0 | 0.00 | 0.00 | 0.00 | 59 | 1008.4 |
| 20260506133451 | 72 | 90 | 2.0 | 10.0 | 0.00 | 0.00 | 0.00 | 60 | 1008.2 |
| 20260506132951 | 71 | 58 | 1.0 | 11.0 | 0.00 | 0.00 | 0.00 | 60 | 1008.5 |
| 20260506132454 | 70 | 49 | 6.0 | 14.0 | 0.00 | 0.00 | 0.00 | 60 | 1008.6 |
| 20260506131954 | 71 | 83 | 2.0 | 14.0 | 0.00 | 0.00 | 0.00 | 60 | 1008.5 |
| 20260506131453 | 72 | 99 | 8.0 | 14.0 | 0.00 | 0.00 | 0.00 | 58 | 1008.6 |
| 20260506131231 | 71 | 88 | 2.0 | 11.0 | 0.00 | 0.00 | 0.00 | 58 | 1008.4 |
| 20260506130453 | 72 | 90 | 2.0 | 10.0 | 0.00 | 0.00 | 0.00 | 57 | 1008.5 |
| 20260506125953 | 72 | 231 | 2.0 | 10.0 | 0.00 | 0.00 | 0.00 | 56 | 1008.4 |
| 20260506125453 | 72 | 173 | 1.0 | 11.0 | 0.00 | 0.00 | 0.00 | 55 | 1008.5 |
| 20260506124954 | 72 | 94 | 6.0 | 11.0 | 0.00 | 0.00 | 0.00 | 56 | 1008.6 |
| 20260506124454 | 71 | 29 | 1.0 | 16.0 | 0.00 | 0.00 | 0.00 | 55 | 1008.5 |
| 20260506123954 | 71 | 64 | 6.0 | 16.0 | 0.00 | 0.00 | 0.00 | 55 | 1008.4 |
| 20260506123455 | 73 | 114 | 2.0 | 7.0 | 0.00 | 0.00 | 0.00 | 53 | 1008.6 |
| 20260506122953 | 72 | 14 | 0.0 | 11.0 | 0.00 | 0.00 | 0.00 | 54 | 1008.7 |
| 20260506122453 | 72 | 83 | 0.0 | 14.0 | 0.00 | 0.00 | 0.00 | 54 | 1008.6 |
| 20260506121954 | 73 | 341 | 3.0 | 14.0 | 0.00 | 0.00 | 0.00 | 53 | 1008.5 |
| 20260506121455 | 74 | 295 | 6.0 | 10.0 | 0.00 | 0.00 | 0.00 | 52 | 1008.7 |
| 20260506120954 | 74 | 296 | 2.0 | 11.0 | 0.00 | 0.00 | 0.00 | 51 | 1008.6 |
| 20260506120453 | 73 | 78 | 2.0 | 17.0 | 0.00 | 0.00 | 0.00 | 52 | 1008.3 |
| 20260506115953 | 71 | 93 | 3.0 | 17.0 | 0.00 | 0.00 | 0.00 | 55 | 1008.7 |
| 20260506115454 | 73 | 73 | 1.0 | 15.0 | 0.00 | 0.00 | 0.00 | 53 | 1008.6 |
| 20260506115012 | 73 | 46 | 7.0 | 9.0 | 0.00 | 0.00 | 0.00 | 55 | 1008.7 |
| 20260506115002 | 71 | 85 | 4.0 | 15.0 | 0.00 | 0.00 | 0.00 | 54 | 1008.6 |
| 20260506113953 | 73 | 253 | 2.0 | 11.0 | 0.00 | 0.00 | 0.00 | 54 | 1008.8 |
| 20260506113447 | 71 | 4 | 4.0 | 14.0 | 0.00 | 0.00 | 0.00 | 56 | 1008.8 |
| 20260506112947 | 74 | 122 | 4.0 | 14.0 | 0.00 | 0.00 | 0.00 | 53 | 1009.1 |
| 20260506112448 | 72 | 81 | 6.0 | 11.0 | 0.00 | 0.00 | 0.00 | 53 | 1008.7 |
| 20260506111943 | 73 | 21 | 5.0 | 11.0 | 0.00 | 0.00 | 0.00 | 53 | 1008.9 |
| 20260506111459 | 73 | 65 | 2.0 | 11.0 | 0.00 | 0.00 | 0.00 | 54 | 1008.7 |
| 20260506110942 | 73 | 112 | 6.0 | 11.0 | 0.00 | 0.00 | 0.00 | 53 | 1008.8 |
| 20260506110445 | 72 | 95 | 2.0 | 8.0 | 0.00 | 0.00 | 0.00 | 55 | 1008.8 |
| 20260506105941 | 72 | 84 | 3.0 | 13.0 | 0.00 | 0.00 | 0.00 | 54 | 1008.8 |
| 20260506105444 | 70 | 87 | 0.0 | 13.0 | 0.00 | 0.00 | 0.00 | 55 | 1008.8 |
| 20260506105222 | 71 | 114 | 3.0 | 13.0 | 0.00 | 0.00 | 0.00 | 55 | 1008.8 |
| 20260506104446 | 71 | 1 | 4.0 | 13.0 | 0.00 | 0.00 | 0.00 | 55 | 1008.8 |
| 20260506103941 | 72 | 64 | 8.0 | 11.0 | 0.00 | 0.00 | 0.00 | 54 | 1008.9 |
| 20260506103728 | 73 | 13 | 2.0 | 6.0 | 0.00 | 0.00 | 0.00 | 52 | 1009.1 |
| 20260506102941 | 71 | 44 | 2.0 | 6.0 | 0.00 | 0.00 | 0.00 | 55 | 1008.9 |
| 20260506102445 | 70 | 314 | 3.0 | 10.0 | 0.00 | 0.00 | 0.00 | 57 | 1009.2 |
| 20260506101942 | 70 | 313 | 1.0 | 15.0 | 0.00 | 0.00 | 0.00 | 57 | 1009.1 |
| 20260506101444 | 70 | 329 | 4.0 | 15.0 | 0.00 | 0.00 | 0.00 | 57 | 1009.0 |
| 20260506100945 | 69 | 96 | 5.0 | 7.0 | 0.00 | 0.00 | 0.00 | 58 | 1009.1 |
| 20260506100502 | 69 | 55 | 1.0 | 7.0 | 0.00 | 0.00 | 0.00 | 60 | 1009.1 |
| 20260506095944 | 69 | 113 | 1.0 | 7.0 | 0.00 | 0.00 | 0.00 | 61 | 1009.1 |
| 20260506095446 | 68 | 88 | 5.0 | 7.0 | 0.00 | 0.00 | 0.00 | 61 | 1009.2 |
| 20260506094941 | 68 | 83 | 2.0 | 8.0 | 0.00 | 0.00 | 0.00 | 62 | 1009.2 |
| 20260506094445 | 69 | 65 | 5.0 | 13.0 | 0.00 | 0.00 | 0.00 | 62 | 1009.4 |
| 20260506094218 | 68 | 45 | 2.0 | 13.0 | 0.00 | 0.00 | 0.00 | 62 | 1009.3 |
| 20260506093444 | 69 | 44 | 5.0 | 10.0 | 0.00 | 0.00 | 0.00 | 62 | 1009.2 |
| 20260506092940 | 70 | 119 | 4.0 | 10.0 | 0.00 | 0.00 | 0.00 | 60 | 1009.3 |
| 20260506092446 | 69 | 99 | 6.0 | 13.0 | 0.00 | 0.00 | 0.00 | 61 | 1009.4 |
| 20260506092217 | 68 | 17 | 4.0 | 13.0 | 0.00 | 0.00 | 0.00 | 63 | 1009.3 |
| 20260506091444 | 69 | 270 | 1.0 | 11.0 | 0.00 | 0.00 | 0.00 | 61 | 1009.4 |
| 20260506091219 | 69 | 285 | 4.0 | 11.0 | 0.00 | 0.00 | 0.00 | 61 | 1009.1 |
| 20260506090445 | 68 | 338 | 7.0 | 13.0 | 0.00 | 0.00 | 0.00 | 62 | 1009.4 |
| 20260506085944 | 68 | 306 | 6.0 | 13.0 | 0.00 | 0.00 | 0.00 | 61 | 1009.3 |
| 20260506085444 | 68 | 85 | 2.0 | 17.0 | 0.00 | 0.00 | 0.00 | 62 | 1009.3 |
| 20260506084942 | 68 | 305 | 3.0 | 17.0 | 0.00 | 0.00 | 0.00 | 64 | 1009.3 |
| 20260506084444 | 68 | 51 | 2.0 | 11.0 | 0.00 | 0.00 | 0.00 | 63 | 1009.1 |
| 20260506083941 | 69 | 69 | 5.0 | 9.0 | 0.00 | 0.00 | 0.00 | 63 | 1009.1 |
| 20260506083444 | 67 | 332 | 3.0 | 9.0 | 0.00 | 0.00 | 0.00 | 65 | 1009.1 |
| 20260506082942 | 67 | 283 | 1.0 | 10.0 | 0.00 | 0.00 | 0.00 | 65 | 1009.1 |
| 20260506082741 | 67 | 344 | 3.0 | 10.0 | 0.00 | 0.00 | 0.00 | 65 | 1009.3 |
| 20260506081941 | 66 | 56 | 2.0 | 10.0 | 0.00 | 0.00 | 0.00 | 66 | 1009.2 |
| 20260506081444 | 66 | 114 | 2.0 | 11.0 | 0.00 | 0.00 | 0.00 | 67 | 1009.1 |
| 20260506080941 | 65 | 92 | 5.0 | 14.0 | 0.00 | 0.00 | 0.00 | 67 | 1009.2 |
| 20260506080446 | 66 | 295 | 4.0 | 14.0 | 0.00 | 0.00 | 0.00 | 67 | 1009.2 |
| 20260506073442 | 64 | 84 | 6.0 | 14.0 | 0.00 | 0.00 | 0.00 | 69 | 1009.2 |
| 20260506072942 | 64 | 51 | 3.0 | 13.0 | 0.00 | 0.00 | 0.00 | 69 | 1009.2 |
| 20260506072441 | 65 | 223 | 2.0 | 13.0 | 0.00 | 0.00 | 0.00 | 69 | 1009.3 |
| 20260506071941 | 64 | 91 | 11.0 | 13.0 | 0.00 | 0.00 | 0.00 | 69 | 1009.1 |
| 20260506071512 | 65 | 262 | 4.0 | 7.0 | 0.00 | 0.00 | 0.00 | 68 | 1009.3 |
| 20260506071450 | 64 | 57 | 6.0 | 13.0 | 0.00 | 0.00 | 0.00 | 70 | 1009.2 |
| 20260506070729 | 64 | 249 | 1.0 | 9.0 | 0.00 | 0.00 | 0.00 | 69 | 1009.3 |
| 20260506062441 | 62 | 114 | 4.0 | 10.0 | 0.00 | 0.00 | 0.00 | 72 | 1009.0 |
| 20260506061928 | 61 | 80 | 4.0 | 11.0 | 0.00 | 0.00 | 0.00 | 72 | 1009.0 |
| 20260506061430 | 61 | 87 | 5.0 | 13.0 | 0.00 | 0.00 | 0.00 | 72 | 1008.9 |
| 20260506060921 | 60 | 112 | 7.0 | 13.0 | 0.00 | 0.00 | 0.00 | 73 | 1008.9 |
| 20260506060705 | 60 | 66 | 4.0 | 11.0 | 0.00 | 0.00 | 0.00 | 73 | 1008.9 |
| 20260506051415 | 57 | 89 | 4.0 | 9.0 | 0.00 | 0.00 | 0.00 | 78 | 1008.8 |
| 20260506050906 | 57 | 104 | 3.0 | 9.0 | 0.00 | 0.00 | 0.00 | 77 | 1008.7 |
| 20260506050637 | 57 | 173 | 3.0 | 6.0 | 0.00 | 0.00 | 0.00 | 78 | 1008.8 |